LEDSAT (49069 NORAD) Tracking and Keplerian Element Data

This shows tracking and keplerian element data for the satellite.

Feedback or suggestion? Click here.




ElementValue
Catalog49069
NameLEDSAT
Epoch Orbit494
Epoch Day262.07386353
Epoch Year2021
RAAN335.2376
Inclination97.5564
Eccentricity0.0029262
Argument of Perigee140.4512
Mean Anonmoly219.8859
Mean Motion15.07132486
Decay Rate9.19E-06
L11 49069U 21073D 21262.07386353 .00000919 00000-0 64740-4 0 9993
L22 49069 97.5564 335.2376 0029262 140.4512 219.8859 15.07132486 4949

Live tracking and technical data element details for LEDSAT (NORAD 49069). LEDSAT can be tracked NOW for your location showing map with azimuth and elevation plus other details from your city location.

Track the satellite on the map from your city or location and see movement details for azimuth, elevation, latitude, longitude, range, height, and movement on the map or in text.







IsCatalogInMostPopularTable: catalog: 49069, numindb: 4
Update: records affected: 1



GetName: 49069 LEDSAT

Hit Count: updated at: Fri, 24 Sep 2021 18:45:04 GMT